Weather in Tarakan

Indonesia     3°20′28″N   117°35′58″E
temp.,
°C
wind,
m/s
gust,
m/s
humid.,
%
clouds,
%
prec.,
mm/h
press.,
hPa
HPBL,
m
22 april, thu
thu2223:00+28se348199 2.3 1010243
02:00+27se1177100 4.3 100848
05:00+27nnw2278100 1.2 100983
08:00+27nw2281100 2.3 101194
11:00+30se0065100 0.5 1010543
14:00+29ese4366100 0.6 1007540
17:00+29ese457083 0.0 1006388
20:00+28se5676100 0.0 1008375
23 april, fri
fri2323:00+28s347792 0.0 1009372
02:00+26ssw118272 2.3 100867
05:00+25wnw1187100 2.9 100871
08:00+25wnw2288100 4.1 1011209
11:00+27e118199 1.6 1010289
14:00+29ssw126892 1.8 1007524
17:00+29e3367100 0.0 1006344
20:00+28e237499 0.0 1009265
24 april, sat
sat2423:00+27ese2280100 2.6 1010112
02:00+26nw2285100 4.8 1009145
05:00+25nw3389100 0.6 1009180
08:00+25nw3388100 0.7 1011226
11:00+29sse117295 0.1 1011478
14:00+29se1168100 1.6 1008498
17:00+29ese4470100 0.4 1008452
20:00+28sse3374100 0.4 1010440
25 april, sun
sun2523:00+26sw1181100 5.6 101131
02:00+25nw5693100 6.4 1010248
05:00+24wnw4589100 0.4 1010208
08:00+25wnw2285100 0.4 1012205
11:00+27sse217461 0.0 1011445
14:00+29ese446926 0.0 1009421
17:00+28ese567366 0.0 1008449
20:00+28ese44755 0.0 1010500
26 april, mon
mon2623:00+27sse227916 0.8 1011282
02:00+26wnw2182100 3.3 1009146
05:00+25nw3388100 0.4 1009190
08:00+26wnw238682 0.7 1012232
11:00+27ene017994 2.3 1011197
14:00+30ese2266100 3.3 1008637
17:00+29e446978 0.0 1007582
20:00+28ene3475100 0.1 1010433